Simultaneous Nadir Overpasses (SNOs) Predictions

Prediction of SNOs between GOES-16 and METOP-B Satellite Orbit:

Table of predicted SNOs for the next 14.0 days since TLE Epoch: 1/25/2019
Index Date Time (GOES-16) GOES-16 Lat,Lon METOP-B Lat,Lon Distance(km) Time Diff (sec)
1 01/27/2019 02:45:34 -0.01, -75.19 -0.96, -79.39 479.15 80
2 01/28/2019 02:27:36 -0.01, -75.19 0.17, -74.40 90.35 80
3 01/29/2019 14:43:49 0.00, -75.22 0.82, -78.97 427.08 80
4 01/30/2019 14:25:50 0.01, -75.22 -0.25, -73.96 142.79 80
5 02/01/2019 02:42:12 -0.00, -75.22 -0.73, -78.57 381.17 80
6 02/02/2019 02:24:13 -0.01, -75.23 0.34, -73.57 189.04 80
7 02/03/2019 14:40:26 0.01, -75.26 0.65, -78.13 327.45 80
8 02/04/2019 14:22:27 0.01, -75.27 -0.47, -73.14 243.18 80
9 02/06/2019 02:38:49 -0.01, -75.28 -0.55, -77.74 279.47 80
10 02/07/2019 02:20:50 -0.02, -75.30 0.58, -72.75 291.58 80
11 02/08/2019 14:37:04 0.01, -75.34 0.42, -77.31 223.80 80




NCC Satellite Simultaneous Nadir Overpasses (SNOs) Prediction Service
